Погода в Яссах

Румыния     47°09′19″N   27°35′44″E
темп.,
°C
ветер,
м/с
пор.,
м/с
влажн.,
%
обл.,
%
осадки,
мм/ч
давл.,
гПа
погр.,
м
19 мая, ср
ср1900:00+11зсз91890100 13.6 10021168
03:00+12сз101886100 19.5 10021078
06:00+12сз91784100 1.4 10041039
09:00+12сз9167899 1.6 10071080
12:00+15сз10147093 0.3 10091445
15:00+16сз9136246 0.3 10101347
18:00+16ссз69655 0.0 1010909
21:00+13ссз1179100 0.0 101110
20 мая, чт
чт2000:00+12сз1178100 0.0 101110
03:00+12ссз2380100 0.0 101172
06:00+11ссв2484100 0.0 1010131
09:00+10з1291100 0.6 1011102
12:00+11с4595100 7.1 1011294
15:00+11с4796100 15.3 1010317
18:00+11с4797100 5.6 1010391
21:00+11ссв4898100 10.6 1011349
21 мая, пт
пт2100:00+11с4798100 5.3 1012400
03:00+10сз3598100 10.3 1012256
06:00+10ссз2499100 3.8 1013182
09:00+12ссз3597100 4.1 1015336
12:00+13ссз5790100 0.3 1016532
15:00+16ссз5677100 0.8 10161048
18:00+16с5775100 0.4 1016951
21:00+13сз358599 0.5 101799
22 мая, сб
сб2200:00+10сз22924 0.0 101725
03:00+9зсз22930 0.0 101720
06:00+9сз11930 0.0 101712
09:00+14сз23770 0.0 1018424
12:00+19с11610 0.0 10161007
15:00+21юв22540 0.0 10151435
18:00+22юв23552 0.0 10131356
21:00+16юв227662 0.0 101316
23 мая, вс
вс2300:00+14ююв228196 0.0 101311
03:00+13ююз1185100 0.0 101210
06:00+13зюз1186100 0.0 101211
09:00+18зюз227195 0.0 1011297
12:00+22юз1152100 0.0 1011626
15:00+24вюв2143100 0.0 10091115
18:00+15сз81594100 0.9 1011389
21:00+14с71295100 6.6 1012488